Regional Weather Roundup
Issued by NWS Charleston, SC

Current Version | Previous Version | Text Only | Print | Product List | Glossary Off
Versions: 1 2 3 4 5 6 7 8 9 10 11 12 13 14 15 16 17 18 19 20 21 22 23 24 25 26 27 28 29 30 31 32 33 34 35 36 37 38 39 40 41 42 43 44 45 46 47 48 49 50

000
ASUS42 KCHS 271710
RWRCHS

REGIONAL WEATHER ROUNDUP
NATIONAL WEATHER SERVICE CHARLESTON SC
100 PM EDT WED AUG 27 2014

NOTE: "FAIR" INDICATES FEW OR NO CLOUDS BELOW 12,000 FEET WITH NO
SIGNIFICANT WEATHER AND/OR OBSTRUCTIONS TO VISIBILITY.

NOT ALL STATIONS ARE QUALITY CONTROLLED BY THE NATIONAL
WEATHER SERVICE. USE DATA WITH CAUTION...ESPECIALLY
DEWPOINT OBSERVATIONS.

SCZ027-030-031-034>040-042>050-271800-
...SOUTH CAROLINA...

CITY           SKY/WX    TMP DP  RH WIND       PRES   REMARKS
N CHARLESTON   MOSUNNY   86  64  47 N7        30.02F
WATERFRONT PRK   N/A     81 N/A N/A S8G14       N/A
FORT JOHNSON   NOT AVBL
MOUNT PLEASANT FAIR      84  64  51 NW9       30.02F
JOHNS ISLAND   SUNNY     84  64  51 NE10      30.02F
PINOPOLIS        N/A     81  63  54 VRB8      29.95F
MONCKS CORNER  NOT AVBL
SUMMERVILLE    FAIR      82  63  51 NW9       30.04F
BEAUFORT MCAS  SUNNY     85  61  44 E9        30.03F
BEAUFORT ARPT  FAIR      82  64  54 NE7       30.03F
HILTON HEAD IS SUNNY     84  64  51 N9        30.05F
GEORGETOWN     NOT AVBL
WALTERBORO     SUNNY     86  54  32 N5        30.04F
ORANGEBURG     SUNNY     85  58  39 NE12      30.05F
BARNWELL       FAIR      84  59  42 CALM      30.06F
AIKEN          FAIR      82  61  47 N5G17     30.10F
MANNING        FAIR      84  61  45 CALM      30.03F
KINGSTREE      NOT AVBL
COLUMBIA       MOSUNNY   86  54  33 VRB6G18   30.05F
SUMTER         SUNNY     84  60  43 N7        30.03F
FLORENCE       SUNNY     86  57  37 MISG      30.04F
MYRTLE BEACH   SUNNY     84  64  51 N12       30.00F
N MYRTLE BEACH NOT AVBL

$$

GAZ063-065-086>088-099>101-113>116-118-119-134-136>141-150-271800-
...GEORGIA...

CITY           SKY/WX    TMP DP  RH WIND       PRES   REMARKS
SAVANNAH ARPT  SUNNY     87  59  38 N10       30.04F
HUNTER AAF     MOSUNNY   84  62  46 N12       30.02F
FORT STEWART   SUNNY     86  60  40 N9G24     30.03F
STATESBORO     NOT AVBL
SYLVANIA       SUNNY     84  65  52 N6        30.06F
CLAXTON        NOT AVBL
THOMSON        SUNNY     85  67  54 CALM      30.12F
AUGUSTA-BUSH   SUNNY     85  58  39 MISG      30.06F
AUGUSTA-DANIEL SUNNY     86  57  37 N7        30.08F
SWAINSBORO     FAIR      88  63  42 NE9       30.06F
VIDALIA          N/A     86  61  42 N9        30.05F
ALMA           SUNNY     86  61  42 N13G18    30.05F
WAYCROSS       SUNNY     89  65  45 NE12      30.04F HX  90
JESUP            N/A     88  63  42 N9        30.04F
BRUNSWICK      SUNNY     86  61  42 NE7       30.04S
SAINT SIMONS   SUNNY     84  63  49 NE13      30.03F

$$

SCZ027-028-034-036>038-045-046-048>050-GAZ119-141-271800-
...LAKE AND SUPPLEMENTAL COASTAL OBSERVATIONS...

STATION/POSITION TIME  TEMP    WIND        PRES    WAVE   SWELL
                       AIR SEA DIR/SP/G            HT/PER HT/PER/DIR
                 (UTC) (F)     (DEG/KT/KT) (MB)    (FT/S) (FT/S/D)
UPR LAKE MARION  NOT AVBL
WINYAH BAY       1600   79      10/  6     1016.0S
LAKE MURRAY      1600   83      20/  3/  5 1017.6F
ACE BASIN NERRS  1600   83     350/  4     1017.0S
FORT PULASKI     1700   79     360/  9/ 13 1017.3F
SAPELO ISLAND    1600   81      20/ 11     1018.0S

$$

ANZ835-935-AMZ111-154-330-350-352-354-374-450-454-472-271800-
...C-MAN AND BUOY OBSERVATIONS...

STATION/POSITION TIME  TEMP    WIND        PRES    WAVE   SWELL
                       AIR SEA DIR/SP/G            HT/PER HT/PER/DIR
                 (UTC) (F)     (DEG/KT/KT) (MB)    (FT/S) (FT/S/D)
FOLLY BEACH CMAN 1600   80      10/  8/ 13 1017.3F
BUOY 41004       1700   78 83   10/ 16/ 17 1015.3R   6/ 8   5/ 8
BUOY 41008       1700   78 84   20/ 14/ 17 1016.7F   4/ 6   3/ 90/10
5E ST. MARYS GA  1700      83                N/A     5/11   2/110/11
FRYING PAN BUOY  NOT AVBL
BUOY 41025       1700   78     360/ 23/ 29 1012.3F  10/10   7/120/10
CAPE LOOKOUT NC  1600   80      10/ 16/ 19 1014.5F
BUOY 41002       1640   80 81  340/ 23/ 27 1008.4F  13/10   5/ 90/13
BUOY 41010       1700   83 85  340/  6/  8 1014.7F   8/10   8/ 40/10
BUOY 41012       NOT AVBL
ST AUGUSTINE FL  1700   81      30/ 12/ 14 1017.2F
CAPERS NEARSHORE 1600   79      20/ 12/ 16   N/A
FRIPP NEARSHORE  NOT AVBL


$$



USA.gov is the U.S. government's official web portal to all federal, state and local government web resources and services.